Regional Weather Roundup
Issued by NWS

Home | Current Version | Previous Version | Graphics & Text | Print | Product List | Glossary On
Versions: 1 2 3 4 5 6 7 8 9 10 11 12 13 14 15 16 17 18 19 20 21 22 23 24 25 26 27 28 29 30 31 32 33 34 35 36 37 38 39 40 41 42 43 44 45 46 47 48 49 50
000
ASUS45 KBOU 020910
RWRCO

WEATHER ROUNDUP FOR COLORADO
NATIONAL WEATHER SERVICE DENVER/BOULDER CO
300 AM MDT THU JUL 02 2015

NOTE: "FAIR" INDICATES FEW OR NO CLOUDS BELOW 12000 FEET WITH NO
SIGNIFICANT WEATHER AND/OR OBSTRUCTIONS TO VISIBILITY.

COZ001>005-013-030-031-021000-
...NORTHWEST COLORADO...

CITY           SKY/WX    TMP DP  RH WIND       PRES   REMARKS
CRAIG          PTCLDY    54  47  77 SW3       30.17S
HAYDEN         PTCLDY    61  45  55 E12       30.20S
MEEKER         MOCLDY    59  50  72 VRB6      30.19S
MOUNT WERNER   NOT AVBL
STEAMBOAT SPGS PTCLDY    52  48  85 CALM      30.23S
WALDEN         MOCLDY    50  45  81 SE5       30.33S
$$

COZ006>008-011-021000-
...WEST CENTRAL VALLEYS...

CITY           SKY/WX    TMP DP  RH WIND       PRES   REMARKS
GRAND JUNCTION MOCLDY    74  50  42 E3        30.02S
MONTROSE       CLOUDY    75  49  39 S8        30.12F
EAGLE          PTCLDY    59  48  67 E3        30.24F
RIFLE          MOCLDY    65  49  56 E6        30.12S
DELTA          CLOUDY    75  52  45 CALM      30.08S
NUCLA          CLOUDY    72  46  40 E7        30.16S
$$

COZ017>023-064>068-021000-
...SOUTHWEST COLORADO...

CITY           SKY/WX    TMP DP  RH WIND       PRES   REMARKS
DURANGO        CLOUDY    64  53  67 N12       30.27R
CORTEZ         CLOUDY    76  48  37 NW3       30.19R
PAGOSA SPRINGS CLOUDY    58  48  69 N3        30.34S
TELLURIDE      CLOUDY    62  44  52 CALM      30.42S
WOLF CREEK PAS NOT AVBL
$$

COZ009-010-012-014-032>034-037-058>063-021000-
...CENTRAL COLORADO...

CITY           SKY/WX    TMP DP  RH WIND       PRES   REMARKS
ASPEN          MOCLDY    56  47  71 CALM      30.29F
BUENA VISTA    MOCLDY    54  51  89 CALM      30.33F
COPPER MTN     PTCLDY    54  37  54 W8        30.62F
BERTHOUD PASS  FAIR      45  36  70 NW20G30   30.66S
COTTONWOOD PAS NOT AVBL
GUNNISON       CLOUDY    61  46  59 N6        30.35S
KREMMLING      PTCLDY    54  46  76 CALM      30.30S
LEADVILLE      PTCLDY    46  45  96 NE7       30.46F
MONARCH PASS   CLOUDY    46  41  81 SW15      30.72F
SALIDA         MOCLDY    58  53  82 NW3       30.38S
SUNLIGHT       MOCLDY    61  43  51 CALM      30.56F
WILKERSON PASS PTCLDY    48  43  81 W10G20    30.58F
$$

COZ069>075-021000-
...SAN LUIS VALLEY/SANGRE DE CRISTO MOUNTAINS...

CITY           SKY/WX    TMP DP  RH WIND       PRES   REMARKS
ALAMOSA        CLOUDY    56  53  90 CALM      30.32F
LA VETA PASS   CLOUDY    48  43  81 MISG      30.46F
SAGUACHE       CLOUDY    54  52  94 N8        30.35F
$$

COZ035-036-038>040-021000-
...NORTHERN COLORADO FRONT RANGE...

CITY           SKY/WX    TMP DP  RH WIND       PRES   REMARKS
DENVER INTL AP PTCLDY    60  54  80 S6        30.09R
DMNS CITY PARK   N/A     64  55  73 SE6       30.07S
AURORA         PTCLDY    64  56  75 SE7       30.11R
FRONT RANGE AP CLEAR     64  57  77 S12       30.10F
ERIE MUNI ARPT CLEAR     58  56  92 N3        30.07S
BOULDER MUN AP CLEAR     61  57  88 NW5       30.08R
CENTENNIAL     PTCLDY    63  55  75 S10       30.11F
BROOMFIELD     CLEAR     63  55  77 NW5       30.10S
FORT COLLINS   CLEAR     63  57  82 N5        30.09S
LONGMONT       CLEAR     60  56  85 CALM      30.10R
$$

COZ041-046-047-076>085-087-088-021000-
...PIKES PEAK/PALMER DIVIDE AND SOUTHERN FOOTHILLS...

CITY           SKY/WX    TMP DP  RH WIND       PRES   REMARKS
COLO. SPRINGS  MOCLDY    61  57  87 NE6       30.19F
A. F. ACADEMY  PTCLDY    58  58  99 CALM      30.20F
ELLICOTT       PTCLDY   N/A N/A N/A SE6       30.18F
FALCON         PTCLDY    58  56  93 SW7       30.23F
FORT CARSON    PTCLDY    59  57  94 NW5       30.15F
LIMON          CLEAR     61  57  87 SW7       30.13F
MONUMENT HILL  PTCLDY    55  54  94 S14       30.22F
TRINIDAD       CLOUDY    61  58  90 SW3       30.17F
$$

COZ042>045-048>051-090-091-021000-
...NORTHEAST COLORADO...

CITY           SKY/WX    TMP DP  RH WIND       PRES   REMARKS
GREELEY ARPT   CLEAR     61  59  94 E8        30.08R
AKRON          CLEAR     62  56  80 SW6       30.10R
BURLINGTON     PTCLDY    63  59  87 NW9       30.06S
WRAY           MOCLDY    66  56  71 SW3       30.03S
STERLING       CLEAR     61  59  94 CALM        N/A
HOLYOKE        MOCLDY    66  54  63 W5        30.03S
FORT MORGAN    CLEAR     60  56  88 NE6       30.09S
$$

COZ086-089-092>099-021000-
...SOUTHEAST COLORADO...

CITY           SKY/WX    TMP DP  RH WIND       PRES   REMARKS
PUEBLO         MOCLDY    65  61  87 CALM      30.10F
LA JUNTA       MOCLDY    66  64  93 SW8       30.07F
LAMAR          CLOUDY    68  65  90 W12       30.02F
SPRINGFIELD      N/A     65  64  97 W6        30.07F
$$


USA.gov is the U.S. government's official web portal to all federal, state and local government web resources and services.